Regional Weather Roundup
Issued by NWS

Home | Current Version | Previous Version | Graphics & Text | Print | Product List | Glossary On
Versions: 1 2 3 4 5 6 7 8 9 10 11 12 13 14 15 16 17 18 19 20 21 22 23 24 25 26 27 28 29 30 31 32 33 34 35 36 37 38 39 40 41 42 43 44 45 46 47 48 49 50
092
ASUS45 KPSR 100610
RWRAZ

ARIZONA HOURLY REGIONAL WEATHER ROUNDUP
NATIONAL WEATHER SERVICE PHOENIX AZ
1100 PM MST FRI DEC 09 2016

NOTE: FAIR INDICATES FEW OR NO CLOUDS BELOW 12,000 FEET WITH NO
SIGNIFICANT WEATHER AND/OR OBSTRUCTIONS TO VISIBILITY.

AZZ001>003-036-100700-
NORTHWEST ARIZONA

CITY           SKY/WX    TMP DP  RH WIND       PRES   REMARKS
BULLHEAD CITY  PTCLDY    55  18  22 N9        30.20R
KINGMAN        PTCLDY    38  29  70 S3        30.22R
6HR MIN TEMP:  38; 6HR MAX TEMP:  58;

$$

AZZ004>008-015-016-018-100700-
NORTH CENTRAL ARIZONA

CITY           SKY/WX    TMP DP  RH WIND       PRES   REMARKS
GRAND CANYON   PTCLDY    26  25  96 CALM      30.27R
6HR MIN TEMP:  25; 6HR MAX TEMP:  47;

WILLIAMS       PTCLDY    30  27  86 S9        30.27S WCI  22
PRESCOTT       PTCLDY    33  30  88 S6        30.24F WCI  28
6HR MIN TEMP:  33; 6HR MAX TEMP:  51;

FLAGSTAFF      PTCLDY    26  24  92 CALM      30.28F
6HR MIN TEMP:  26; 6HR MAX TEMP:  41;

PAYSON         CLEAR     39  32  75 CALM      30.28S
PAGE           PTCLDY    39  15  37 SW3       30.24R
6HR MIN TEMP:  37; 6HR MAX TEMP:  45;

$$

AZZ009>014-017-100700-
NORTHEAST ARIZONA

CITY           SKY/WX    TMP DP  RH WIND       PRES   REMARKS
WINSLOW        PTCLDY    33  25  72 CALM      30.26S
6HR MIN TEMP:  31; 6HR MAX TEMP:  54;

SAINT JOHNS    CLEAR     36  26  67 S7        30.27R WCI  30
6HR MIN TEMP:  34; 6HR MAX TEMP:  53;

WINDOW ROCK    CLEAR     26  22  84 CALM      30.29S
6HR MIN TEMP:  25; 6HR MAX TEMP:  47;

SHOW LOW       CLEAR     32  25  74 S6        30.29R WCI  26
$$

AZZ023-100700-
GREATER PHOENIX AREA

CITY           SKY/WX    TMP DP  RH WIND       PRES   REMARKS
PHOENIX        PTCLDY    55  40  56 SW5       30.13S
6HR MIN TEMP:  54; 6HR MAX TEMP:  68;

BUCKEYE          N/A     50  39  66 N8        30.16S
LUKE AFB       CLEAR     52  40  63 CALM      30.14R
6HR MIN TEMP:  51; 6HR MAX TEMP:  67;

DEER VALLEY    CLEAR     54  38  54 N8        30.15R
6HR MIN TEMP:  54; 6HR MAX TEMP:  66;

SCOTTSDALE     CLEAR     54  39  57 N3        30.16R
6HR MIN TEMP:  53; 6HR MAX TEMP:  67;

MESA-GATEWAY   CLEAR     50  36  57 NE6       30.15R
$$

AZZ027-028-100700-
SOUTHWEST MARICOPA COUNTY AND PINAL COUNTY

CITY           SKY/WX    TMP DP  RH WIND       PRES   REMARKS
CASA GRANDE    NOT AVBL
GILA BEND      FAIR      50  36  58 SE9       30.14R
6HR MIN TEMP:  50; 6HR MAX TEMP:  67;

$$

AZZ503-504-507>509-100700-
SOUTHEAST ARIZONA

CITY           SKY/WX    TMP DP  RH WIND       PRES   REMARKS
TUCSON         PTCLDY    50  32  50 VRB3      30.19S
6HR MIN TEMP:  50; 6HR MAX TEMP:  67;

DAVIS-MONTHAN  PTCLDY    48  33  55 SE6       30.18S
6HR MIN TEMP:  48; 6HR MAX TEMP:  64;

NOGALES        CLEAR     46  30  53 E8        30.21R
6HR MIN TEMP:  45; 6HR MAX TEMP:  65;

SIERRA VISTA   MOCLDY    47  30  52 W3        30.25R
6HR MIN TEMP:  46; 6HR MAX TEMP:  61;

DOUGLAS        PTCLDY    42  31  64 CALM      30.24R
6HR MIN TEMP:  40; 6HR MAX TEMP:  62;

SAFFORD        CLOUDY    49  33  54 SE8       30.23R
6HR MIN TEMP:  47; 6HR MAX TEMP:  55; 6HR PCP:  0.01;

$$

AZZ020-021-025-026-031-100700-
SOUTHWEST ARIZONA

CITY           SKY/WX    TMP DP  RH WIND       PRES   REMARKS
YUMA           CLEAR     57  24  28 N6        30.15R
6HR MIN TEMP:  57; 6HR MAX TEMP:  69;

$$

CAZ031-033-041-043-047-048-061-100700-
SOUTHERN CALIFORNIA

CITY           SKY/WX    TMP DP  RH WIND       PRES   REMARKS
DOWNTOWN L.A.  PTCLDY    57  56  96 CALM      30.18R FOG
6HR MIN TEMP:  56; 6HR MAX TEMP:  64;

L.A. AIRPORT   MOCLDY    59  58  96 E3        30.19R
6HR MIN TEMP:  59; 6HR MAX TEMP:  61;

SAN DIEGO      MOCLDY    60  54  80 N5        30.20S
6HR MIN TEMP:  60; 6HR MAX TEMP:  63;

BURBANK        CLEAR     54  50  86 NE3       30.19R
6HR MIN TEMP:  54; 6HR MAX TEMP:  64;

ONTARIO        PTCLDY    54  50  86 CALM      30.19R
6HR MIN TEMP:  52; 6HR MAX TEMP:  63;

RIVERSIDE      CLEAR     53  48  83 CALM      30.19R
6HR MIN TEMP:  53; 6HR MAX TEMP:  64;

PALM SPRINGS   CLEAR     56  42  59 NW6       30.17S
6HR MIN TEMP:  55; 6HR MAX TEMP:  68;

EL CENTRO NAS  CLEAR     52  28  39 W5        30.17R
6HR MIN TEMP:  50; 6HR MAX TEMP:  67;

IMPERIAL       CLEAR     50  37  61 CALM      30.15S
6HR MIN TEMP:  50; 6HR MAX TEMP:  68;

BLYTHE         PTCLDY    50  20  30 NW7       30.17R
6HR MIN TEMP:  50; 6HR MAX TEMP:  65;

NEEDLES        PTCLDY    51  17  26 W6        30.20R
6HR MIN TEMP:  51; 6HR MAX TEMP:  64;

$$

NVZ020-UTZ003-100700-
SOUTHERN NEVADA-UTAH

CITY           SKY/WX    TMP DP  RH WIND       PRES   REMARKS
LAS VEGAS      PTCLDY    47  13  25 CALM      30.21F
6HR MIN TEMP:  47; 6HR MAX TEMP:  55;

SALT LAKE CITY CLOUDY    32  30  92 NE3       30.05F
6HR MIN TEMP:  32; 6HR MAX TEMP:  36;

$$

NMZ009-TXZ055-100700-
NEW MEXICO-WEST TEXAS

CITY           SKY/WX    TMP DP  RH WIND       PRES   REMARKS
ALBUQUERQUE    CLOUDY    35  26  69 CALM      30.31R
6HR MIN TEMP:  31; 6HR MAX TEMP:  44;

EL PASO        PTCLDY    37  29  72 NE5       30.31S WCI  33
6HR MIN TEMP:  37; 6HR MAX TEMP:  45;

$$


........................KEY........................
SKY/WX - SKY CONDITION/WEATHER
TMP    - TEMPERATURE IN FAHRENHEIT
DP     - DEW POINT IN FAHRENHEIT
RH     - RELATIVE HUMIDITY IN PERCENT
WIND   - DIRECTION AND SPEED IN MILES PER HOUR (MPH)
VRB    - VARIABLE WIND DIRECTION
PRES   - MEAN SEA LEVEL PRESSURE IN INCHES OF MERCURY
         F - FALLING PRESSURE   R - RISING PRESSURE
         S - STEADY PRESSURE
VSB    - VISIBILITY IN MILES
HX     - HEAT INDEX IN FAHRENHEIT
WCI    - WIND CHILL INDEX IN FAHRENHEIT
TC     - TEMPERATURE IN CELSIUS WHICH IS ALSO KNOWN AS
         TEMPERATURE IN CENTIGRADE
AFB    - AIR FORCE BASE
         LUKE AFB IS LUKE AIR FORCE BASE
         DAVIS-MONTHAN IS DAVIS-MONTHAN AIR FORCE BASE
NAS    - NAVAL AIR STATION
         EL CENTRO NAS IS EL CENTRO NAVAL AIR STATION
N/A    - NOT AVAILABLE





USA.gov is the U.S. government's official web portal to all federal, state and local government web resources and services.